This is the latest recevied weather packets stored in our database for station/object WA9SDJ-13. If no packets are shown the sender has not sent any weather packets the latest 1 day(s).
| Time | Temp. | Humidity | Pressure | Rain* | Wind** | Luminosity | Snow |
|---|---|---|---|---|---|---|---|
| 1778078876 | 11.67° C | 82% | 1013.1 hPa | 0 mm | - | 157 W/m² | - |
| 1778078635 | 11.67° C | 81% | 1013 hPa | 0 mm | - | 167 W/m² | - |
| 1778078515 | 11.67° C | 82% | 1013.1 hPa | 0 mm | - | 167 W/m² | - |
| 1778077554 | 11.67° C | 83% | 1012.9 hPa | 0 mm | - | 318 W/m² | - |
| 1778077495 | 11.67° C | 83% | 1012.9 hPa | 0 mm | - | 297 W/m² | - |
| 1778077435 | 11.67° C | 81% | 1012.9 hPa | 0 mm | - | 290 W/m² | - |
| 1778077014 | 11.67° C | 84% | 1013 hPa | 0 mm | - | 327 W/m² | - |
| 1778076954 | 11.67° C | 85% | 1013 hPa | 0 mm | - | 301 W/m² | - |
| 1778076894 | 11.67° C | 85% | 1013.1 hPa | 0 mm | - | 301 W/m² | - |
| 1778076654 | 11.67° C | 85% | 1013.3 hPa | 0 mm | - | 230 W/m² | - |
| 1778076414 | 11.11° C | 85% | 1013.1 hPa | 0 mm | - | 239 W/m² | - |
| 1778076354 | 11.11° C | 85% | 1013 hPa | 0 mm | - | 230 W/m² | - |
| 1778075994 | 11.11° C | 87% | 1012.8 hPa | 0 mm | - | 276 W/m² | - |
| 1778075934 | 11.11° C | 87% | 1012.8 hPa | 0 mm | - | 283 W/m² | - |
| 1778075334 | 10.56° C | 87% | 1012.9 hPa | 0 mm | - | 376 W/m² | - |
| 1778074013 | 10° C | 88% | 1012.8 hPa | 0 mm | - | 127 W/m² | - |
| 1778073953 | 10° C | 88% | 1012.8 hPa | 0 mm | - | 130 W/m² | - |
| 1778073893 | 9.44° C | 88% | 1012.8 hPa | 0 mm | - | 146 W/m² | - |
| 1778073353 | 9.44° C | 88% | 1012.7 hPa | 0 mm | - | 158 W/m² | - |
| 1778073293 | 9.44° C | 88% | 1012.7 hPa | 0 mm | - | 141 W/m² | - |
| 1778073173 | 9.44° C | 88% | 1012.7 hPa | 0 mm | - | 135 W/m² | - |
| 1778072512 | 9.44° C | 88% | 1012.7 hPa | 0 mm | - | 114 W/m² | - |
| 1778072453 | 9.44° C | 88% | 1012.7 hPa | 0 mm | - | 83 W/m² | - |
| 1778072092 | 9.44° C | 88% | 1012.5 hPa | 0 mm | - | 93 W/m² | - |
| 1778072033 | 9.44° C | 88% | 1012.4 hPa | 0 mm | - | 100 W/m² | - |
* Rain latest hour (hover to see other rain measurements)
** Current wind speed in m/s (hover to see current wind gust speed)